Weather in Sokolovka

Ukraine / Cherkassi District     49°01′44″N   30°07′37″E
temp.,
°C
wind,
m/s
gust,
m/s
humid.,
%
clouds,
%
prec.,
mm/h
press.,
hPa
HPBL,
m
9 march, tue
tue923:00−5nw368742 0.1 1017123
02:00−6wnw368621 0.1 101998
05:00−7wnw36890 0.0 1019115
08:00−5nw48900 0.0 1020508
11:00−3nw458057 0.1 1022870
14:00−2nw457379 0.3 10221114
17:00−3n238293 0.1 102340
20:00−6nne228372 0.1 102421
10 march, wed
wed1023:00−7e22827 0.0 102521
02:00−8se239139 0.0 102650
05:00−8ese359091 0.0 1026122
08:00−7se368696 0.0 1026222
11:00−5ese4578100 0.0 1026385
14:00−4ese4576100 0.0 1025538
17:00−5ese358588 0.0 1024167
20:00−8e338361 0.0 102646
11 march, thu
thu1123:00−7e3381100 0.0 102669
02:00−8e238272 0.0 102738
05:00−9ene338327 0.0 102758
08:00−7e258453 0.0 1028160
11:00−4ese35720 0.0 1028510
14:00−2ese34690 0.0 1027778
17:00−4ese23790 0.0 102667
20:00−6ese33770 0.0 102741
12 march, fri
fri1223:00−7se35770 0.0 102890
02:00−6sse4108112 0.0 1027222
05:00−6sse6137882 0.0 1027385
08:00−5sse7137591 0.0 1026518
11:00−2sse91372100 0.0 1025924
14:000s91479100 0.0 10231239
17:00−1s91492100 0.3 1022987
20:00−2s91594100 1.1 1023797
13 march, sat
sat1323:00−2s81494100 0.4 1023658
02:00−2s7139397 0.6 1022464
05:00−1sse599599 0.1 1022269
08:00−2sse5896100 0.3 1022242
11:000sse47100100 0.1 1022362
14:00+2s49100100 0.1 1021420
17:00+2s51097100 0.0 1020335
20:00+1s51197100 0.1 1020370